Regional Weather Roundup
Issued by NWS

Home | Current Version | Previous Version | Graphics & Text | Print | Product List | Glossary Off
Versions: 1 2 3 4 5 6 7 8 9 10 11 12 13 14 15 16 17 18 19 20 21 22 23 24 25 26 27 28 29 30 31 32 33 34 35 36 37 38 39 40 41 42 43 44 45 46 47 48 49 50

000
ASUS43 KLSX 031710
RWRMO

WEATHER SUMMARY FOR MISSOURI
NATIONAL WEATHER SERVICE SPRINGFIELD MO
1100 AM CST SAT DEC 03 2016

NOTE: "FAIR" INDICATES FEW OR NO CLOUDS BELOW 12,000 FEET WITH NO
       SIGNIFICANT WEATHER AND/OR OBSTRUCTIONS TO VISIBILITY.
       CURRENT SKY AND/OR WEATHER CONDITIONS ARE NOT AVAILABLE FOR
       CHILLICOTHE AND FARMINGTON.

MOZ001>031-035>038-043-044-053-054-031800-
...NORTHERN AND WESTERN MISSOURI...

CITY           SKY/WX    TMP DP  RH WIND       PRES   REMARKS
KANSAS CTY INT CLOUDY    42  30  62 E10       30.28F
KANSAS C DTWN  CLOUDY    42  32  67 E7        30.29F
LEE`S SUMMIT   CLOUDY    44  30  57 E10       30.28F
ST JOSEPH      CLOUDY    37  31  78 VRB3      30.31F
CHILLICOTHE      N/A     39  33  79 VRB3      30.34F
KIRKSVILLE     CLOUDY    39  34  82 E7        30.35F

$$
MOZ066>068-077>081-088>096-101>105-031800-
...SOUTHWEST MISSOURI...

CITY           SKY/WX    TMP DP  RH WIND       PRES   REMARKS
SPRINGFIELD    CLOUDY    46  30  53 SE16      30.27S
JOPLIN         CLOUDY    49  33  54 SE10      30.26S
BRANSON        CLOUDY    45  32  61 SE9       30.31S

$$
MOZ032>034-039>042-045>050-055>058-069>072-031800-
...CENTRAL MISSOURI...

CITY           SKY/WX    TMP DP  RH WIND       PRES   REMARKS
COLUMBIA       PTSUNNY   41  32  70 E7        30.33S
JEFFERSON CITY CLOUDY    37  32  82 SE5       30.34S
ROLLA          CLOUDY    39  32  76 SE8       30.31S
SEDALIA        MOSUNNY   46  31  55 E7        30.32S
WHITEMAN AFB   PTSUNNY   46  33  61 SE9       30.29F
WARRENSBURG    CLOUDY    45  32  61 E10       30.30F
OSAGE BEACH    CLOUDY    42  31  64 SE6       30.32S

$$
MOZ051-052-059>065-031800-
...EAST CENTRAL MISSOURI...

CITY           SKY/WX    TMP DP  RH WIND       PRES   REMARKS
ST LOUIS INTL  CLOUDY    43  31  62 SE8       30.37S
SPIRIT OF STL  PTSUNNY   41  33  73 E3        30.37S
ST CHARLES     PTSUNNY   41  34  76 E5        30.37F

$$
MOZ072>076-082>087-097>100-106>115-031800-
...SOUTH CENTRAL AND SOUTHEAST MISSOURI...

CITY           SKY/WX    TMP DP  RH WIND       PRES   REMARKS
CAPE GIRARDEAU CLOUDY    43  31  62 SE9       30.40R
FARMINGTON     PTSUNNY   40  33  76 S6        30.37R
POPLAR BLUFF   CLOUDY    43  34  70 E7        30.37S
WEST PLAINS    CLOUDY    42  32  67 E8        30.34F

$$




USA.gov is the U.S. government's official web portal to all federal, state and local government web resources and services.